Find Starlink 37123

NORAD ID: 68275 Int'l Des: 2026-055 Owner: SPXS Country: US Constellation: starlink operational
LEOCIRCULAR

实时位置

正在加载3D地球...

关于 Starlink 37123

正在加载描述...

即将过境

Passes for default location (London). Set your location on the main map for personalized predictions.

高度历史

Loading altitude history...

两行轨道根数

1 68275U 26055P 26124.12489525 .00060764 00000-0 13947-2 0 9996
2 68275 53.1606 62.1053 0001414 86.4781 273.6387 15.42160846 8418
Epoch: May 4, 2026 • Age: 6 hours

当前状态

高度 440.5 km
速度 7.65 km/s
星下点 28.37°N, 81.66°E
发射日期 Mar 19, 2026
运行时间 0.1 years
类型 internet

技术详情

分类 Payload
质量 575.00 kg
干质量 530.00 kg
总质量 575.00 kg
长度 0.30 m
直径 4.10 m
跨度 29.00 m
形状 Box + pan
制造商 SPXS
平台类型 Starlink V2MO
阶段状态 In Orbit
所有者/国家 SPXS/US

Most Searched